When you browse on this site, cookies collect data to enhance your experience and personalize the content and advertising you see.
Visit our Privacy Policy to learn more. By continuing to use the site, you agree to this use of cookies and data.
  • In Switzerland
  • List of Countries
  • For 7 days
  • Water Temperature
  • Weather Map
  • Weather Widgets
  • user-avatar
    Login

    Hourly Weather London

    Today, 11 December, Wednesday

    Time Temperature Precipitation Wind Pressure Humidity
    00:00 +6°C° 0.4 mm 4 mps 754 mmHg 74%
    01:00 +6°C° 0 mm 4 mps 754 mmHg 76%
    02:00 +5°C° 0 mm 4 mps 754 mmHg 78%
    03:00 +5°C° 0 mm 3 mps 755 mmHg 80%
    04:00 +4°C° 0 mm 3 mps 754 mmHg 81%
    05:00 +4°C° 0 mm 3 mps 754 mmHg 82%
    06:00 +4°C° 0 mm 3 mps 754 mmHg 83%
    07:00 +4°C° 0 mm 3 mps 754 mmHg 83%
    08:00 +4°C° 0 mm 3 mps 753 mmHg 82%
    09:00 +4°C° 0 mm 3 mps 753 mmHg 82%
    10:00 +5°C° 0 mm 3 mps 752 mmHg 78%
    11:00 +6°C° 0 mm 4 mps 751 mmHg 74%
    12:00 +7°C° 0 mm 4 mps 751 mmHg 70%
    13:00 +7°C° 0.1 mm 4 mps 750 mmHg 73%
    14:00 +6°C° 0.1 mm 4 mps 749 mmHg 75%
    15:00 +6°C° 0.1 mm 4 mps 748 mmHg 78%
    16:00 +5°C° 0.2 mm 5 mps 748 mmHg 78%
    17:00 +3°C° 0.2 mm 6 mps 749 mmHg 77%
    18:00 +2°C° 0.2 mm 7 mps 749 mmHg 77%
    19:00 +2°C° 0 mm 7 mps 749 mmHg 77%
    20:00 +2°C° 0 mm 6 mps 750 mmHg 77%
    21:00 +2°C° 0 mm 5 mps 750 mmHg 77%
    22:00 +1°C° 0 mm 5 mps 750 mmHg 78%
    23:00 +1°C° 0 mm 5 mps 751 mmHg 78%

    Tomorrow, 12 December, Thursday

    Time Temperature Precipitation Wind Pressure Humidity
    00:00 +1°C° 0 mm 4 mps 751 mmHg 79%
    01:00 +1°C° 0 mm 4 mps 751 mmHg 80%
    02:00 +1°C° 0 mm 4 mps 751 mmHg 80%
    03:00 0°C° 0 mm 4 mps 751 mmHg 81%
    04:00 +1°C° 0 mm 3 mps 750 mmHg 82%
    05:00 +1°C° 0 mm 3 mps 750 mmHg 82%
    06:00 +1°C° 0 mm 3 mps 750 mmHg 83%
    07:00 +1°C° 0 mm 3 mps 749 mmHg 81%
    08:00 +2°C° 0 mm 3 mps 748 mmHg 80%
    09:00 +2°C° 0 mm 3 mps 747 mmHg 78%
    10:00 +3°C° 0 mm 4 mps 746 mmHg 79%
    11:00 +3°C° 0 mm 6 mps 745 mmHg 80%
    12:00 +5°C° 0 mm 7 mps 743 mmHg 81%
    13:00 +5°C° 0.6 mm 7 mps 741 mmHg 84%
    14:00 +5°C° 0.6 mm 8 mps 738 mmHg 87%
    15:00 +5°C° 0.6 mm 8 mps 736 mmHg 90%
    16:00 +5°C° 1.6 mm 8 mps 734 mmHg 90%
    17:00 +5°C° 1.6 mm 8 mps 732 mmHg 90%
    18:00 +5°C° 1.6 mm 7 mps 731 mmHg 91%
    19:00 +5°C° 1.4 mm 6 mps 730 mmHg 91%
    20:00 +6°C° 1.4 mm 5 mps 729 mmHg 91%
    21:00 +6°C° 1.4 mm 5 mps 728 mmHg 92%
    22:00 +5°C° 0.3 mm 6 mps 728 mmHg 90%
    23:00 +4°C° 0.3 mm 7 mps 727 mmHg 88%

    Day after tomorrow, 13 December, Friday

    Time Temperature Precipitation Wind Pressure Humidity
    00:00 +3°C° 0.3 mm 9 mps 727 mmHg 86%
    01:00 +3°C° 0.1 mm 9 mps 727 mmHg 83%
    02:00 +3°C° 0.1 mm 9 mps 727 mmHg 80%
    03:00 +3°C° 0.1 mm 9 mps 727 mmHg 77%
    04:00 +2°C° 0.2 mm 10 mps 728 mmHg 80%
    05:00 +2°C° 0.2 mm 10 mps 728 mmHg 82%
    06:00 +2°C° 0.2 mm 11 mps 729 mmHg 85%
    07:00 +2°C° 0.1 mm 11 mps 730 mmHg 80%
    08:00 +2°C° 0.1 mm 11 mps 731 mmHg 76%
    09:00 +3°C° 0.1 mm 11 mps 732 mmHg 71%
    10:00 +3°C° 0 mm 10 mps 733 mmHg 72%
    11:00 +5°C° 0 mm 10 mps 734 mmHg 73%
    12:00 +5°C° 0 mm 9 mps 735 mmHg 73%
    13:00 +5°C° 0 mm 9 mps 736 mmHg 74%
    14:00 +5°C° 0 mm 8 mps 737 mmHg 75%
    15:00 +5°C° 0 mm 7 mps 738 mmHg 75%
    16:00 +5°C° 0 mm 7 mps 738 mmHg 75%
    17:00 +4°C° 0 mm 6 mps 738 mmHg 75%
    18:00 +5°C° 0 mm 5 mps 738 mmHg 75%
    19:00 +5°C° 0.2 mm 5 mps 737 mmHg 78%
    20:00 +3°C° 0.2 mm 5 mps 737 mmHg 80%
    21:00 +3°C° 0.2 mm 5 mps 736 mmHg 83%
    22:00 +5°C° 0.8 mm 6 mps 735 mmHg 81%
    23:00 +6°C° 0.8 mm 8 mps 733 mmHg 79%

    14 December, Saturday

    Time Temperature Precipitation Wind Pressure Humidity
    00:00 +7°C° 0.8 mm 10 mps 732 mmHg 78%
    01:00 +6°C° 0 mm 10 mps 733 mmHg 74%
    02:00 +4°C° 0 mm 11 mps 734 mmHg 70%
    03:00 +3°C° 0 mm 11 mps 735 mmHg 66%
    04:00 +3°C° 0 mm 10 mps 736 mmHg 65%
    05:00 +2°C° 0 mm 9 mps 737 mmHg 65%
    06:00 +2°C° 0 mm 8 mps 738 mmHg 64%
    07:00 +3°C° 0 mm 7 mps 738 mmHg 69%
    08:00 +2°C° 0 mm 7 mps 738 mmHg 75%
    09:00 +2°C° 0 mm 6 mps 739 mmHg 80%
    10:00 +2°C° 0.9 mm 7 mps 739 mmHg 82%
    11:00 +1°C° 0.9 mm 8 mps 739 mmHg 83%
    12:00 +1°C° 0.9 mm 8 mps 740 mmHg 85%
    13:00 +1°C° 0.1 mm 8 mps 741 mmHg 78%
    14:00 +1°C° 0.1 mm 8 mps 741 mmHg 72%
    15:00 +2°C° 0.1 mm 8 mps 742 mmHg 65%
    16:00 +2°C° 0 mm 7 mps 742 mmHg 66%
    17:00 +2°C° 0 mm 7 mps 743 mmHg 67%
    18:00 +2°C° 0 mm 6 mps 743 mmHg 68%
    19:00 +2°C° 0 mm 6 mps 743 mmHg 69%
    20:00 +1°C° 0 mm 5 mps 743 mmHg 70%
    21:00 +1°C° 0 mm 4 mps 743 mmHg 70%
    22:00 +3°C° 0.2 mm 4 mps 742 mmHg 77%
    23:00 +3°C° 0.2 mm 4 mps 741 mmHg 83%

    15 December, Sunday

    Time Temperature Precipitation Wind Pressure Humidity
    00:00 +3°C° 0.2 mm 3 mps 740 mmHg 89%
    01:00 +3°C° 1.7 mm 5 mps 738 mmHg 84%
    02:00 +4°C° 1.7 mm 6 mps 737 mmHg 78%
    03:00 +5°C° 1.7 mm 8 mps 735 mmHg 73%
    04:00 +4°C° 0.1 mm 8 mps 736 mmHg 74%
    05:00 +2°C° 0.1 mm 9 mps 737 mmHg 75%
    06:00 0°C° 0.1 mm 10 mps 738 mmHg 76%
    07:00 +1°C° 0.3 mm 8 mps 740 mmHg 78%
    08:00 +2°C° 0.3 mm 7 mps 741 mmHg 79%
    09:00 +2°C° 0.3 mm 5 mps 743 mmHg 81%
    10:00 +3°C° 0 mm 6 mps 744 mmHg 76%
    11:00 +4°C° 0 mm 7 mps 744 mmHg 70%
    12:00 +5°C° 0 mm 9 mps 744 mmHg 64%
    13:00 +5°C° 0 mm 8 mps 745 mmHg 65%
    14:00 +5°C° 0 mm 7 mps 746 mmHg 66%
    15:00 +5°C° 0 mm 6 mps 746 mmHg 66%
    16:00 +4°C° 0 mm 6 mps 747 mmHg 69%
    17:00 +5°C° 0 mm 5 mps 747 mmHg 72%
    18:00 +5°C° 0 mm 5 mps 748 mmHg 74%
    19:00 +5°C° 0 mm 5 mps 748 mmHg 75%
    20:00 +3°C° 0 mm 5 mps 749 mmHg 76%
    21:00 +4°C° 0 mm 4 mps 749 mmHg 77%
    22:00 +4°C° 0 mm 4 mps 750 mmHg 78%
    23:00 +4°C° 0 mm 4 mps 750 mmHg 80%

    16 December, Monday

    Time Temperature Precipitation Wind Pressure Humidity
    00:00 +4°C° 0 mm 4 mps 751 mmHg 81%
    01:00 +4°C° 0 mm 4 mps 751 mmHg 82%
    02:00 +4°C° 0 mm 3 mps 751 mmHg 83%
    03:00 +4°C° 0 mm 3 mps 751 mmHg 84%
    04:00 +4°C° 0 mm 3 mps 751 mmHg 85%
    05:00 +5°C° 0 mm 2 mps 751 mmHg 86%
    06:00 +4°C° 0 mm 2 mps 751 mmHg 87%
    07:00 +4°C° 0 mm 3 mps 751 mmHg 88%
    08:00 +4°C° 0 mm 4 mps 751 mmHg 88%
    09:00 +5°C° 0 mm 5 mps 751 mmHg 88%
    10:00 +6°C° 0 mm 5 mps 750 mmHg 86%
    11:00 +7°C° 0 mm 6 mps 750 mmHg 83%
    12:00 +8°C° 0 mm 7 mps 750 mmHg 80%
    13:00 +8°C° 0.1 mm 7 mps 749 mmHg 82%
    14:00 +7°C° 0.1 mm 6 mps 749 mmHg 83%
    15:00 +7°C° 0.1 mm 6 mps 749 mmHg 84%
    16:00 +7°C° 1.6 mm 5 mps 749 mmHg 86%
    17:00 +6°C° 1.6 mm 4 mps 749 mmHg 88%
    18:00 +7°C° 1.6 mm 2 mps 749 mmHg 90%
    19:00 +6°C° 0.5 mm 2 mps 750 mmHg 89%
    20:00 +6°C° 0.5 mm 2 mps 750 mmHg 88%
    21:00 +7°C° 0.5 mm 1 mps 750 mmHg 87%
    22:00 +7°C° 0 mm 1 mps 750 mmHg 86%
    23:00 +6°C° 0 mm 1 mps 750 mmHg 85%
    Show more